| time (UTC) | temp F | wind direction | speed MPH | gust MPH | rain 1hr in | rain 24hr in | rain mn in | humidity % | barometer mb |
| 20260508035337 | 55 | 176 | 0.0 | 0.0 | 0.02 | 1.40 | 1.40 | 94 | 1012.2 |
| 20260508034835 | 55 | 176 | 0.0 | 0.0 | 0.02 | 1.40 | 1.40 | 94 | 1011.9 |
| 20260508034537 | 54 | 176 | 0.0 | 0.0 | 0.00 | 0.00 | 1.40 | 94 | 1011.8 |
| 20260508034335 | 55 | 176 | 0.0 | 0.0 | 0.02 | 1.40 | 1.40 | 94 | 1011.9 |
| 20260508033837 | 55 | 176 | 0.0 | 1.0 | 0.02 | 1.40 | 1.40 | 94 | 1011.8 |
| 20260508033336 | 55 | 176 | 0.0 | 1.0 | 0.02 | 1.39 | 1.39 | 94 | 1011.6 |
| 20260508033014 | 55 | 176 | 0.0 | 0.0 | 0.00 | 0.00 | 1.39 | 94 | 1011.5 |
| 20260508032839 | 55 | 176 | 0.0 | 2.0 | 0.02 | 1.39 | 1.39 | 94 | 1011.7 |
| 20260508032342 | 55 | 186 | 1.0 | 2.0 | 0.02 | 1.39 | 1.39 | 94 | 1011.5 |
| 20260508031844 | 55 | 186 | 1.0 | 2.0 | 0.02 | 1.39 | 1.39 | 94 | 1011.4 |
| 20260508031504 | 55 | 148 | 0.0 | 0.0 | 0.00 | 0.00 | 1.39 | 94 | 1011.4 |
| 20260508031345 | 55 | 148 | 0.0 | 0.0 | 0.02 | 1.39 | 1.39 | 94 | 1011.6 |
| 20260508030845 | 55 | 148 | 0.0 | 0.0 | 0.02 | 1.39 | 1.39 | 94 | 1011.7 |
| 20260508030339 | 55 | 148 | 0.0 | 1.0 | 0.02 | 1.38 | 1.38 | 94 | 1011.5 |
| 20260508030026 | 55 | 148 | 0.0 | 0.0 | 0.00 | 0.00 | 1.38 | 94 | 1011.3 |
| 20260508025837 | 55 | 148 | 0.0 | 1.0 | 0.02 | 1.38 | 1.38 | 94 | 1011.3 |
| 20260508025338 | 55 | 148 | 0.0 | 0.0 | 0.02 | 1.38 | 1.38 | 94 | 1011.3 |
| 20260508024839 | 55 | 148 | 0.0 | 0.0 | 0.02 | 1.38 | 1.38 | 94 | 1011.2 |
| 20260508024535 | 54 | 148 | 0.0 | 0.0 | 0.00 | 0.00 | 1.38 | 94 | 1011.1 |
| 20260508024336 | 55 | 148 | 0.0 | 0.0 | 0.02 | 1.38 | 1.38 | 94 | 1011.2 |
| 20260508023837 | 55 | 148 | 0.0 | 1.0 | 0.03 | 1.38 | 1.38 | 94 | 1011.2 |
| 20260508023337 | 55 | 148 | 0.0 | 1.0 | 0.02 | 1.37 | 1.37 | 94 | 1011.2 |
| 20260508023008 | 54 | 148 | 0.0 | 0.0 | 0.00 | 0.00 | 1.37 | 94 | 1011.2 |
| 20260508022839 | 55 | 148 | 0.0 | 1.0 | 0.02 | 1.37 | 1.37 | 94 | 1011.2 |
| 20260508022406 | 55 | 148 | 0.0 | 1.0 | 0.02 | 1.37 | 1.37 | 94 | 1011.2 |
| 20260508021845 | 55 | 148 | 0.0 | 0.0 | 0.02 | 1.37 | 1.37 | 94 | 1011.2 |
| 20260508021538 | 55 | 148 | 0.0 | 0.0 | 0.00 | 0.00 | 1.37 | 94 | 1010.8 |
| 20260508021346 | 55 | 148 | 0.0 | 0.0 | 0.03 | 1.37 | 1.37 | 94 | 1010.8 |
| 20260508020845 | 55 | 148 | 0.0 | 0.0 | 0.03 | 1.37 | 1.37 | 94 | 1010.8 |
| 20260508020359 | 55 | 148 | 0.0 | 0.0 | 0.02 | 1.36 | 1.36 | 94 | 1011.0 |
| 20260508020045 | 55 | 148 | 0.0 | 0.0 | 0.00 | 0.00 | 1.36 | 94 | 1011.1 |
| 20260508015905 | 55 | 148 | 0.0 | 0.0 | 0.02 | 1.36 | 1.36 | 94 | 1011.2 |
| 20260508015409 | 55 | 148 | 0.0 | 0.0 | 0.02 | 1.36 | 1.36 | 94 | 1011.1 |
| 20260508014848 | 55 | 148 | 0.0 | 0.0 | 0.03 | 1.36 | 1.36 | 94 | 1010.8 |
| 20260508014549 | 55 | 148 | 0.0 | 0.0 | 0.00 | 0.00 | 1.36 | 94 | 1010.7 |
| 20260508014347 | 55 | 148 | 0.0 | 0.0 | 0.03 | 1.36 | 1.36 | 94 | 1010.8 |
| 20260508013848 | 55 | 148 | 0.0 | 2.0 | 0.02 | 1.35 | 1.35 | 94 | 1010.9 |
| 20260508013347 | 55 | 148 | 0.0 | 2.0 | 0.02 | 1.35 | 1.35 | 94 | 1010.8 |
| 20260508013035 | 55 | 153 | 0.0 | 0.0 | 0.00 | 0.00 | 1.35 | 94 | 1010.3 |
| 20260508012845 | 55 | 208 | 0.0 | 1.0 | 0.02 | 1.35 | 1.35 | 94 | 1010.3 |
| 20260508012347 | 55 | 207 | 0.0 | 1.0 | 0.03 | 1.35 | 1.35 | 94 | 1010.0 |
| 20260508011845 | 55 | 208 | 0.0 | 0.0 | 0.03 | 1.35 | 1.35 | 94 | 1010.2 |
| 20260508011529 | 55 | 208 | 0.0 | 0.0 | 0.00 | 0.00 | 1.35 | 94 | 1010.0 |
| 20260508011345 | 55 | 208 | 0.0 | 0.0 | 0.02 | 1.34 | 1.34 | 94 | 1010.2 |
| 20260508010844 | 55 | 208 | 0.0 | 0.0 | 0.02 | 1.34 | 1.34 | 94 | 1010.2 |
| 20260508010355 | 55 | 207 | 0.0 | 0.0 | 0.02 | 1.34 | 1.34 | 94 | 1010.3 |
| 20260508010051 | 55 | 207 | 0.0 | 0.0 | 0.00 | 0.00 | 1.34 | 94 | 1010.2 |
| 20260508005852 | 55 | 208 | 0.0 | 1.0 | 0.02 | 1.34 | 1.34 | 94 | 1010.3 |
| 20260508005354 | 55 | 208 | 0.0 | 1.0 | 0.02 | 1.34 | 1.34 | 94 | 1010.1 |
| 20260508004853 | 55 | 207 | 0.0 | 2.0 | 0.01 | 1.33 | 1.33 | 94 | 1010.2 |
| 20260508004522 | 55 | 208 | 0.0 | 0.0 | 0.00 | 0.00 | 1.33 | 93 | 1010.0 |
| 20260508004332 | 55 | 207 | 0.0 | 2.0 | 0.02 | 1.33 | 1.33 | 93 | 1010.5 |
| 20260508003833 | 55 | 172 | 0.0 | 1.0 | 0.02 | 1.33 | 1.33 | 93 | 1009.9 |
| 20260508003402 | 55 | 172 | 0.0 | 0.0 | 0.02 | 1.33 | 1.33 | 93 | 1010.0 |
| 20260508003038 | 55 | 172 | 0.0 | 0.0 | 0.00 | 0.00 | 1.33 | 93 | 1010.4 |
| 20260508002842 | 55 | 172 | 0.0 | 2.0 | 0.02 | 1.33 | 1.33 | 93 | 1010.6 |
| 20260508002344 | 55 | 172 | 1.0 | 2.0 | 0.01 | 1.32 | 1.32 | 93 | 1010.4 |
| 20260508001845 | 55 | 286 | 1.0 | 2.0 | 0.01 | 1.32 | 1.32 | 93 | 1010.1 |
| 20260508001536 | 55 | 251 | 1.0 | 0.0 | 0.00 | 0.00 | 1.32 | 93 | 1009.7 |
| 20260508001345 | 56 | 250 | 0.0 | 2.0 | 0.01 | 1.32 | 1.32 | 93 | 1009.7 |
| 20260508000844 | 56 | 250 | 0.0 | 2.0 | 0.01 | 1.32 | 1.32 | 93 | 1009.5 |
| 20260508000335 | 56 | 251 | 0.0 | 1.0 | 0.01 | 1.32 | 1.32 | 93 | 1009.1 |
| 20260508000055 | 55 | 250 | 0.0 | 0.0 | 0.00 | 0.00 | 1.32 | 93 | 1008.8 |
| 20260507235900 | 56 | 250 | 0.0 | 1.0 | 0.02 | 1.32 | 1.32 | 93 | 1008.8 |
| 20260507235340 | 56 | 251 | 0.0 | 1.0 | 0.02 | 1.32 | 1.32 | 93 | 1008.8 |
| 20260507234841 | 56 | 250 | 0.0 | 1.0 | 0.02 | 1.32 | 1.32 | 93 | 1008.9 |
| 20260507234523 | 55 | 250 | 0.0 | 0.0 | 0.00 | 0.00 | 1.31 | 93 | 1008.7 |
| 20260507234340 | 56 | 251 | 0.0 | 1.0 | 0.01 | 1.31 | 1.31 | 93 | 1008.9 |
| 20260507233842 | 56 | 250 | 1.0 | 1.0 | 0.01 | 1.31 | 1.31 | 93 | 1009.0 |
| 20260507233343 | 56 | 250 | 0.0 | 1.0 | 0.01 | 1.31 | 1.31 | 93 | 1009.2 |
| 20260507233014 | 55 | 251 | 0.0 | 0.0 | 0.00 | 0.00 | 1.31 | 93 | 1008.9 |
| 20260507232842 | 56 | 251 | 0.0 | 0.0 | 0.01 | 1.31 | 1.31 | 93 | 1009.2 |
| 20260507232343 | 56 | 251 | 0.0 | 2.0 | 0.02 | 1.31 | 1.31 | 93 | 1009.1 |
| 20260507231846 | 56 | 250 | 0.0 | 2.0 | 0.02 | 1.31 | 1.31 | 93 | 1009.1 |
| 20260507231511 | 55 | 294 | 0.0 | 0.0 | 0.00 | 0.00 | 1.31 | 93 | 1008.9 |
| 20260507231330 | 56 | 294 | 1.0 | 2.0 | 0.02 | 1.31 | 1.31 | 93 | 1009.1 |
| 20260507230830 | 56 | 294 | 0.0 | 2.0 | 0.02 | 1.31 | 1.31 | 93 | 1009.0 |
| 20260507230406 | 56 | 294 | 0.0 | 2.0 | 0.02 | 1.31 | 1.31 | 93 | 1008.9 |
| 20260507230013 | 55 | 294 | 0.0 | 0.0 | 0.00 | 0.00 | 1.30 | 93 | 1008.6 |
| 20260507225846 | 56 | 294 | 1.0 | 1.0 | 0.01 | 1.30 | 1.30 | 93 | 1008.9 |
| 20260507225413 | 56 | 294 | 0.0 | 3.0 | 0.01 | 1.30 | 1.30 | 93 | 1009.0 |
| 20260507224853 | 56 | 224 | 1.0 | 6.0 | 0.02 | 1.30 | 1.30 | 93 | 1008.6 |
| 20260507224547 | 55 | 305 | 1.0 | 0.0 | 0.00 | 0.00 | 1.30 | 93 | 1008.5 |
| 20260507224355 | 56 | 296 | 2.0 | 6.0 | 0.02 | 1.30 | 1.30 | 93 | 1008.7 |
| 20260507223856 | 56 | 300 | 0.0 | 3.0 | 0.02 | 1.30 | 1.30 | 93 | 1008.7 |
| 20260507223355 | 56 | 300 | 1.0 | 3.0 | 0.02 | 1.30 | 1.30 | 93 | 1008.7 |
| 20260507223035 | 55 | 299 | 1.0 | 0.0 | 0.00 | 0.00 | 1.30 | 93 | 1008.5 |
| 20260507222856 | 56 | 300 | 0.0 | 3.0 | 0.02 | 1.30 | 1.30 | 93 | 1008.6 |
| 20260507222356 | 56 | 34 | 1.0 | 3.0 | 0.01 | 1.29 | 1.29 | 93 | 1008.5 |
| 20260507221835 | 56 | 5 | 2.0 | 3.0 | 0.01 | 1.29 | 1.29 | 93 | 1008.6 |
| 20260507221507 | 55 | 351 | 1.0 | 0.0 | 0.00 | 0.00 | 1.29 | 93 | 1008.3 |
| 20260507221337 | 56 | 351 | 1.0 | 3.0 | 0.02 | 1.29 | 1.29 | 93 | 1008.5 |
| 20260507220837 | 56 | 337 | 0.0 | 2.0 | 0.02 | 1.29 | 1.29 | 93 | 1008.6 |
| 20260507220345 | 56 | 350 | 1.0 | 2.0 | 0.02 | 1.29 | 1.29 | 93 | 1008.5 |
| 20260507220031 | 55 | 294 | 1.0 | 0.0 | 0.00 | 0.00 | 1.29 | 93 | 1008.5 |
| 20260507215830 | 56 | 294 | 0.0 | 2.0 | 0.02 | 1.29 | 1.29 | 93 | 1008.7 |
| 20260507215332 | 56 | 294 | 0.0 | 2.0 | 0.02 | 1.29 | 1.29 | 93 | 1008.7 |
| 20260507214834 | 56 | 297 | 0.0 | 2.0 | 0.02 | 1.28 | 1.28 | 93 | 1008.6 |
| 20260507214519 | 55 | 286 | 1.0 | 0.0 | 0.00 | 0.00 | 1.28 | 93 | 1008.3 |
| 20260507214335 | 56 | 297 | 1.0 | 2.0 | 0.02 | 1.28 | 1.28 | 93 | 1008.5 |
| 20260507213903 | 56 | 308 | 1.0 | 3.0 | 0.02 | 1.28 | 1.28 | 93 | 1008.4 |
| 20260507213343 | 56 | 308 | 1.0 | 6.0 | 0.02 | 1.28 | 1.28 | 93 | 1008.4 |
| 20260507213049 | 56 | 355 | 2.0 | 0.0 | 0.00 | 0.00 | 1.28 | 93 | 1008.2 |
| 20260507212844 | 56 | 338 | 2.0 | 6.0 | 0.02 | 1.28 | 1.28 | 93 | 1008.4 |
| 20260507212344 | 56 | 275 | 2.0 | 4.0 | 0.03 | 1.28 | 1.28 | 93 | 1008.4 |
| 20260507211843 | 57 | 355 | 2.0 | 4.0 | 0.03 | 1.28 | 1.28 | 93 | 1008.3 |
| 20260507211543 | 56 | 324 | 1.0 | 0.0 | 0.00 | 0.00 | 1.27 | 93 | 1008.0 |
| 20260507211343 | 56 | 323 | 1.0 | 4.0 | 0.02 | 1.27 | 1.27 | 93 | 1008.2 |
| 20260507210842 | 56 | 277 | 1.0 | 6.0 | 0.02 | 1.27 | 1.27 | 93 | 1008.2 |
| 20260507210331 | 57 | 269 | 2.0 | 6.0 | 0.03 | 1.27 | 1.27 | 93 | 1008.2 |
| 20260507210009 | 56 | 277 | 2.0 | 0.0 | 0.00 | 0.00 | 1.27 | 94 | 1007.8 |
| 20260507205831 | 57 | 338 | 1.0 | 5.0 | 0.03 | 1.27 | 1.27 | 93 | 1008.0 |
| 20260507205359 | 57 | 300 | 2.0 | 6.0 | 0.03 | 1.27 | 1.27 | 93 | 1008.0 |
| 20260507204840 | 57 | 273 | 3.0 | 6.0 | 0.02 | 1.26 | 1.26 | 94 | 1007.8 |
| 20260507204537 | 57 | 295 | 1.0 | 0.0 | 0.00 | 0.00 | 1.26 | 94 | 1007.6 |
| 20260507204340 | 58 | 300 | 1.0 | 3.0 | 0.03 | 1.26 | 1.26 | 94 | 1007.7 |
| 20260507203839 | 58 | 13 | 1.0 | 5.0 | 0.03 | 1.26 | 1.26 | 94 | 1007.7 |
| 20260507203408 | 58 | 284 | 2.0 | 5.0 | 0.03 | 1.26 | 1.26 | 93 | 1007.8 |
| 20260507203018 | 57 | 315 | 1.0 | 0.0 | 0.00 | 0.00 | 1.26 | 93 | 1007.3 |
| 20260507202847 | 58 | 337 | 0.0 | 2.0 | 0.04 | 1.26 | 1.26 | 93 | 1007.6 |
| 20260507202331 | 58 | 360 | 1.0 | 3.0 | 0.03 | 1.25 | 1.25 | 94 | 1007.6 |
| 20260507201832 | 58 | 295 | 1.0 | 9.0 | 0.03 | 1.25 | 1.25 | 93 | 1007.7 |
| 20260507201535 | 58 | 290 | 2.0 | 0.0 | 0.00 | 0.00 | 1.25 | 93 | 1007.5 |
| 20260507201334 | 58 | 278 | 3.0 | 9.0 | 0.03 | 1.25 | 1.25 | 93 | 1007.6 |
| 20260507200830 | 58 | 306 | 1.0 | 3.0 | 0.03 | 1.25 | 1.25 | 93 | 1007.6 |
| 20260507200346 | 58 | 294 | 1.0 | 4.0 | 0.03 | 1.24 | 1.24 | 93 | 1007.6 |
| 20260507200003 | 58 | 259 | 2.0 | 0.0 | 0.00 | 0.00 | 1.24 | 93 | 1007.4 |
| 20260507195845 | 59 | 278 | 2.0 | 4.0 | 0.03 | 1.24 | 1.24 | 93 | 1007.6 |
| 20260507195346 | 59 | 287 | 1.0 | 4.0 | 0.03 | 1.29 | 1.24 | 93 | 1007.3 |
| 20260507194846 | 59 | 265 | 3.0 | 4.0 | 0.04 | 1.29 | 1.24 | 93 | 1007.5 |
| 20260507194602 | 59 | 286 | 1.0 | 0.0 | 0.00 | 0.00 | 1.23 | 93 | 1007.1 |
| 20260507194415 | 59 | 286 | 1.0 | 3.0 | 0.03 | 1.28 | 1.23 | 93 | 1007.4 |
| 20260507193855 | 59 | 240 | 1.0 | 3.0 | 0.04 | 1.28 | 1.23 | 93 | 1007.5 |
| 20260507193402 | 59 | 346 | 1.0 | 4.0 | 0.04 | 1.28 | 1.23 | 93 | 1007.4 |
| 20260507193038 | 59 | 309 | 2.0 | 0.0 | 0.00 | 0.00 | 1.22 | 93 | 1007.0 |
| 20260507192840 | 60 | 286 | 2.0 | 6.0 | 0.04 | 1.27 | 1.22 | 93 | 1007.4 |
| 20260507192339 | 60 | 284 | 2.0 | 4.0 | 0.04 | 1.27 | 1.22 | 93 | 1007.4 |
| 20260507191834 | 60 | 5 | 2.0 | 4.0 | 0.05 | 1.27 | 1.22 | 93 | 1007.5 |
| 20260507191521 | 60 | 307 | 1.0 | 0.0 | 0.00 | 0.00 | 1.22 | 93 | 1007.5 |
| 20260507191332 | 61 | 272 | 2.0 | 4.0 | 0.06 | 1.27 | 1.22 | 93 | 1007.7 |
| 20260507190902 | 61 | 273 | 2.0 | 5.0 | 0.06 | 1.27 | 1.22 | 93 | 1007.3 |
| 20260507190332 | 61 | 300 | 2.0 | 5.0 | 0.06 | 1.26 | 1.21 | 93 | 1007.1 |
| 20260507190028 | 61 | 281 | 2.0 | 0.0 | 0.00 | 0.00 | 1.21 | 93 | 1006.7 |
| 20260507185833 | 61 | 294 | 2.0 | 3.0 | 0.07 | 1.26 | 1.21 | 93 | 1006.8 |
| 20260507185333 | 62 | 269 | 1.0 | 3.0 | 0.07 | 1.26 | 1.21 | 93 | 1006.5 |
| 20260507184902 | 62 | 316 | 2.0 | 3.0 | 0.07 | 1.25 | 1.20 | 93 | 1006.8 |
| 20260507184502 | 62 | 345 | 1.0 | 0.0 | 0.00 | 0.00 | 1.20 | 93 | 1006.8 |
| 20260507184341 | 62 | 345 | 1.0 | 3.0 | 0.08 | 1.25 | 1.20 | 93 | 1007.0 |
| 20260507183841 | 63 | 295 | 1.0 | 4.0 | 0.07 | 1.24 | 1.19 | 92 | 1007.1 |
| 20260507183340 | 63 | 291 | 2.0 | 4.0 | 0.08 | 1.24 | 1.19 | 92 | 1007.4 |
| 20260507183048 | 63 | 311 | 1.0 | 0.0 | 0.00 | 0.00 | 1.18 | 92 | 1007.0 |
| 20260507182841 | 64 | 281 | 1.0 | 3.0 | 0.08 | 1.23 | 1.18 | 92 | 1007.2 |
| 20260507182336 | 65 | 288 | 1.0 | 2.0 | 0.09 | 1.23 | 1.18 | 93 | 1006.6 |
| 20260507181836 | 65 | 5 | 1.0 | 3.0 | 0.09 | 1.22 | 1.17 | 92 | 1006.5 |
| 20260507181536 | 65 | 71 | 2.0 | 0.0 | 0.00 | 0.00 | 1.17 | 92 | 1006.6 |
| 20260507181336 | 66 | 294 | 2.0 | 4.0 | 0.09 | 1.21 | 1.16 | 92 | 1007.0 |
| 20260507180835 | 68 | 176 | 1.0 | 6.0 | 0.09 | 1.21 | 1.16 | 92 | 1006.7 |
| 20260507180348 | 70 | 296 | 4.0 | 6.0 | 0.09 | 1.20 | 1.15 | 94 | 1006.7 |
| 20260507180054 | 70 | 5 | 1.0 | 0.0 | 0.00 | 0.00 | 1.14 | 94 | 1006.4 |
| 20260507175849 | 70 | 61 | 1.0 | 3.0 | 0.10 | 1.20 | 1.15 | 94 | 1006.7 |
| 20260507175350 | 70 | 290 | 1.0 | 2.0 | 0.10 | 1.19 | 1.14 | 94 | 1006.8 |
| 20260507174830 | 70 | 244 | 0.0 | 3.0 | 0.10 | 1.18 | 1.13 | 94 | 1006.8 |
| 20260507174550 | 70 | 228 | 0.0 | 0.0 | 0.00 | 0.00 | 1.12 | 94 | 1006.5 |
| 20260507174330 | 70 | 355 | 1.0 | 3.0 | 0.10 | 1.17 | 1.12 | 94 | 1006.7 |
| 20260507173917 | 70 | 12 | 0.0 | 4.0 | 0.11 | 1.17 | 1.12 | 94 | 1006.7 |
| 20260507173354 | 70 | 13 | 1.0 | 4.0 | 0.11 | 1.16 | 1.11 | 94 | 1006.5 |
| 20260507173044 | 69 | 248 | 1.0 | 0.0 | 0.00 | 0.00 | 1.10 | 94 | 1006.3 |
| 20260507172853 | 70 | 322 | 1.0 | 3.0 | 0.11 | 1.15 | 1.10 | 94 | 1006.6 |
| 20260507172355 | 70 | 273 | 0.0 | 3.0 | 0.11 | 1.14 | 1.09 | 94 | 1006.5 |
| 20260507171837 | 70 | 25 | 1.0 | 3.0 | 0.11 | 1.13 | 1.08 | 94 | 1006.4 |
| 20260507171544 | 70 | 337 | 1.0 | 0.0 | 0.00 | 0.00 | 1.08 | 94 | 1006.0 |
| 20260507171339 | 71 | 196 | 1.0 | 2.0 | 0.12 | 1.13 | 1.08 | 94 | 1006.2 |
| 20260507170905 | 71 | 342 | 0.0 | 2.0 | 0.12 | 1.12 | 1.07 | 95 | 1006.4 |
| 20260507170338 | 71 | 126 | 0.0 | 2.0 | 0.12 | 1.11 | 1.06 | 95 | 1006.5 |
| 20260507170051 | 70 | 126 | 0.0 | 0.0 | 0.00 | 0.00 | 1.05 | 95 | 1006.2 |
| 20260507165842 | 70 | 82 | 1.0 | 2.0 | 0.12 | 1.10 | 1.05 | 95 | 1006.5 |
| 20260507165346 | 70 | 82 | 0.0 | 2.0 | 0.12 | 1.09 | 1.04 | 95 | 1006.7 |
| 20260507164844 | 70 | 96 | 0.0 | 2.0 | 0.13 | 1.08 | 1.03 | 95 | 1006.9 |
| 20260507164543 | 69 | 28 | 0.0 | 0.0 | 0.00 | 0.00 | 1.02 | 95 | 1006.7 |
| 20260507164345 | 70 | 28 | 1.0 | 2.0 | 0.13 | 1.07 | 1.02 | 95 | 1006.9 |
| 20260507163843 | 69 | 171 | 0.0 | 2.0 | 0.13 | 1.06 | 1.01 | 95 | 1007.3 |
| 20260507163345 | 69 | 171 | 1.0 | 3.0 | 0.13 | 1.05 | 1.00 | 94 | 1007.4 |
| 20260507163038 | 69 | 348 | 1.0 | 0.0 | 0.00 | 0.00 | 1.00 | 94 | 1007.1 |
| 20260507162848 | 69 | 349 | 1.0 | 3.0 | 0.13 | 1.04 | 0.99 | 94 | 1007.4 |
| 20260507162348 | 69 | 333 | 0.0 | 2.0 | 0.14 | 1.03 | 0.98 | 95 | 1007.7 |
| 20260507161850 | 69 | 271 | 0.0 | 2.0 | 0.14 | 1.02 | 0.97 | 95 | 1007.8 |
| 20260507161505 | 69 | 317 | 1.0 | 0.0 | 0.00 | 0.00 | 0.96 | 95 | 1007.6 |
| 20260507161331 | 69 | 302 | 0.0 | 3.0 | 0.14 | 1.01 | 0.96 | 95 | 1007.8 |
| 20260507160829 | 69 | 302 | 1.0 | 5.0 | 0.14 | 1.00 | 0.95 | 95 | 1007.9 |
| 20260507160410 | 69 | 265 | 1.0 | 5.0 | 0.15 | 0.99 | 0.94 | 94 | 1008.0 |
| 20260507160012 | 68 | 342 | 1.0 | 0.0 | 0.00 | 0.00 | 0.93 | 95 | 1007.7 |
| 20260507155849 | 69 | 131 | 1.0 | 4.0 | 0.15 | 0.98 | 0.93 | 94 | 1007.9 |
| 20260507155330 | 69 | 254 | 0.0 | 3.0 | 0.16 | 0.97 | 0.92 | 94 | 1007.8 |
| 20260507154859 | 69 | 78 | 1.0 | 3.0 | 0.16 | 0.96 | 0.91 | 95 | 1007.7 |
| 20260507154542 | 68 | 37 | 0.0 | 0.0 | 0.00 | 0.00 | 0.90 | 95 | 1007.3 |
| 20260507154343 | 69 | 36 | 0.0 | 3.0 | 0.15 | 0.94 | 0.89 | 95 | 1007.5 |
| 20260507153844 | 69 | 325 | 1.0 | 2.0 | 0.16 | 0.93 | 0.88 | 95 | 1007.4 |
| 20260507153406 | 69 | 54 | 0.0 | 1.0 | 0.16 | 0.92 | 0.87 | 95 | 1007.6 |
| 20260507153017 | 68 | 54 | 0.0 | 0.0 | 0.00 | 0.00 | 0.86 | 95 | 1007.4 |
| 20260507152850 | 68 | 54 | 0.0 | 2.0 | 0.16 | 0.91 | 0.86 | 95 | 1007.8 |
| 20260507152354 | 68 | 67 | 0.0 | 2.0 | 0.17 | 0.90 | 0.85 | 95 | 1007.6 |
| 20260507151854 | 68 | 5 | 0.0 | 3.0 | 0.16 | 0.88 | 0.83 | 94 | 1007.6 |
| 20260507151608 | 67 | 360 | 1.0 | 0.0 | 0.00 | 0.00 | 0.83 | 94 | 1007.3 |
| 20260507151509 | 68 | 60 | 1.0 | 0.0 | 0.00 | 0.00 | 0.82 | 94 | 1007.3 |
| 20260507151353 | 68 | 325 | 1.0 | 3.0 | 0.16 | 0.87 | 0.82 | 94 | 1007.7 |
| 20260507150853 | 68 | 26 | 1.0 | 5.0 | 0.16 | 0.86 | 0.81 | 94 | 1007.7 |
| 20260507150345 | 68 | 98 | 1.0 | 5.0 | 0.15 | 0.84 | 0.79 | 94 | 1007.8 |
| 20260507150001 | 67 | 327 | 2.0 | 0.0 | 0.00 | 0.00 | 0.78 | 94 | 1007.7 |
| 20260507145844 | 68 | 321 | 2.0 | 5.0 | 0.14 | 0.83 | 0.78 | 94 | 1008.1 |
| 20260507145346 | 68 | 267 | 2.0 | 5.0 | 0.13 | 0.82 | 0.77 | 94 | 1008.2 |
| 20260507144915 | 68 | 360 | 0.0 | 4.0 | 0.11 | 0.80 | 0.75 | 94 | 1008.1 |
| 20260507144526 | 67 | 19 | 1.0 | 0.0 | 0.00 | 0.00 | 0.74 | 94 | 1007.8 |
| 20260507144350 | 68 | 171 | 1.0 | 4.0 | 0.10 | 0.79 | 0.74 | 94 | 1008.1 |
| 20260507143850 | 68 | 336 | 1.0 | 4.0 | 0.08 | 0.77 | 0.72 | 94 | 1008.1 |
| 20260507143351 | 68 | 338 | 1.0 | 6.0 | 0.07 | 0.76 | 0.71 | 94 | 1008.3 |
| 20260507143100 | 68 | 83 | 2.0 | 0.0 | 0.00 | 0.00 | 0.70 | 94 | 1008.1 |
| 20260507142916 | 68 | 341 | 1.0 | 6.0 | 0.06 | 0.75 | 0.70 | 94 | 1008.3 |
| 20260507142355 | 68 | 275 | 3.0 | 6.0 | 0.04 | 0.73 | 0.68 | 94 | 1008.5 |
| 20260507141834 | 68 | 350 | 2.0 | 5.0 | 0.03 | 0.72 | 0.67 | 95 | 1008.5 |
| 20260507141609 | 68 | 286 | 2.0 | 0.0 | 0.00 | 0.00 | 0.67 | 94 | 1008.3 |
| 20260507141501 | 68 | 286 | 2.0 | 0.0 | 0.00 | 0.00 | 0.67 | 95 | 1008.2 |
| 20260507141334 | 69 | 320 | 1.0 | 5.0 | 0.02 | 0.71 | 0.66 | 94 | 1008.6 |
| 20260507140834 | 69 | 11 | 3.0 | 5.0 | 0.01 | 0.70 | 0.65 | 95 | 1008.6 |
| 20260507140348 | 69 | 355 | 1.0 | 2.0 | 0.01 | 0.69 | 0.64 | 95 | 1008.5 |
| 20260507140021 | 68 | 355 | 0.0 | 0.0 | 0.00 | 0.00 | 0.64 | 95 | 1008.3 |
| 20260507135848 | 69 | 355 | 1.0 | 2.0 | 0.01 | 0.69 | 0.64 | 95 | 1008.5 |
| 20260507135345 | 69 | 355 | 0.0 | 2.0 | 0.01 | 0.69 | 0.64 | 95 | 1008.5 |
| 20260507134845 | 69 | 43 | 1.0 | 5.0 | 0.01 | 0.69 | 0.64 | 95 | 1008.5 |
| 20260507134509 | 68 | 24 | 0.0 | 0.0 | 0.00 | 0.00 | 0.64 | 95 | 1008.2 |
| 20260507134347 | 69 | 24 | 0.0 | 5.0 | 0.01 | 0.69 | 0.64 | 95 | 1008.4 |
| 20260507133846 | 69 | 5 | 0.0 | 2.0 | 0.01 | 0.69 | 0.64 | 95 | 1008.4 |
| 20260507133347 | 69 | 69 | 1.0 | 2.0 | 0.01 | 0.69 | 0.64 | 95 | 1008.5 |
| 20260507133142 | 68 | 259 | 0.0 | 0.0 | 0.00 | 0.00 | 0.64 | 95 | 1008.2 |
| 20260507132916 | 69 | 232 | 0.0 | 2.0 | 0.01 | 0.69 | 0.64 | 95 | 1008.5 |
| 20260507132355 | 69 | 290 | 0.0 | 2.0 | 0.01 | 0.69 | 0.64 | 95 | 1008.5 |
| 20260507131835 | 69 | 290 | 1.0 | 2.0 | 0.01 | 0.69 | 0.64 | 95 | 1008.5 |
| 20260507131505 | 68 | 288 | 0.0 | 0.0 | 0.00 | 0.00 | 0.64 | 95 | 1008.2 |
| 20260507131337 | 68 | 288 | 1.0 | 2.0 | 0.01 | 0.69 | 0.64 | 95 | 1008.5 |
| 20260507130839 | 68 | 288 | 0.0 | 2.0 | 0.01 | 0.69 | 0.64 | 95 | 1008.4 |
| 20260507130330 | 68 | 268 | 0.0 | 2.0 | 0.00 | 0.68 | 0.63 | 95 | 1008.3 |
| 20260507130038 | 68 | 336 | 0.0 | 0.0 | 0.00 | 0.00 | 0.63 | 95 | 1007.9 |
| 20260507125858 | 68 | 336 | 0.0 | 2.0 | 0.00 | 0.68 | 0.63 | 95 | 1008.3 |
| 20260507125336 | 68 | 325 | 1.0 | 3.0 | 0.00 | 0.68 | 0.63 | 95 | 1008.3 |
| 20260507124902 | 68 | 14 | 0.0 | 3.0 | 0.00 | 0.68 | 0.63 | 95 | 1008.3 |
| 20260507124542 | 67 | 148 | 1.0 | 0.0 | 0.00 | 0.00 | 0.63 | 95 | 1008.0 |
| 20260507124342 | 68 | 47 | 0.0 | 3.0 | 0.00 | 0.68 | 0.63 | 95 | 1008.2 |
| 20260507123841 | 68 | 333 | 1.0 | 3.0 | 0.00 | 0.68 | 0.63 | 95 | 1008.3 |
| 20260507123340 | 68 | 57 | 0.0 | 3.0 | 0.00 | 0.68 | 0.63 | 95 | 1008.4 |
| 20260507123037 | 67 | 32 | 0.0 | 0.0 | 0.00 | 0.00 | 0.63 | 95 | 1008.1 |
| 20260507122841 | 68 | 68 | 0.0 | 2.0 | 0.00 | 0.68 | 0.63 | 95 | 1008.4 |
| 20260507122410 | 68 | 341 | 0.0 | 2.0 | 0.00 | 0.68 | 0.63 | 95 | 1008.5 |
| 20260507121851 | 68 | 341 | 0.0 | 2.0 | 0.00 | 0.68 | 0.63 | 95 | 1008.6 |
| 20260507121534 | 67 | 336 | 0.0 | 0.0 | 0.00 | 0.00 | 0.63 | 95 | 1008.3 |
| 20260507121331 | 67 | 336 | 0.0 | 2.0 | 0.00 | 0.68 | 0.63 | 95 | 1008.4 |
| 20260507120830 | 67 | 336 | 0.0 | 2.0 | 0.00 | 0.68 | 0.63 | 95 | 1008.6 |
| 20260507120339 | 67 | 336 | 0.0 | 2.0 | 0.00 | 0.68 | 0.63 | 95 | 1008.8 |
| 20260507120005 | 67 | 346 | 0.0 | 0.0 | 0.00 | 0.00 | 0.63 | 95 | 1008.4 |
| 20260507115840 | 67 | 346 | 0.0 | 2.0 | 0.00 | 0.68 | 0.63 | 95 | 1008.7 |
| 20260507115339 | 67 | 346 | 1.0 | 2.0 | 0.01 | 0.68 | 0.63 | 95 | 1008.8 |
| 20260507114838 | 67 | 280 | 0.0 | 3.0 | 0.01 | 0.68 | 0.63 | 95 | 1008.9 |
| 20260507114559 | 67 | 280 | 0.0 | 0.0 | 0.00 | 0.00 | 0.63 | 95 | 1008.7 |
| 20260507114339 | 67 | 275 | 0.0 | 3.0 | 0.01 | 0.68 | 0.63 | 95 | 1009.0 |
| 20260507113907 | 67 | 236 | 0.0 | 2.0 | 0.02 | 0.68 | 0.63 | 95 | 1009.0 |
| 20260507113348 | 67 | 236 | 1.0 | 2.0 | 0.02 | 0.68 | 0.63 | 95 | 1009.0 |
| 20260507113023 | 67 | 9 | 0.0 | 0.0 | 0.00 | 0.00 | 0.63 | 95 | 1008.7 |
| 20260507112849 | 67 | 9 | 1.0 | 2.0 | 0.02 | 0.68 | 0.63 | 95 | 1009.0 |
| 20260507112331 | 67 | 9 | 1.0 | 1.0 | 0.02 | 0.68 | 0.63 | 94 | 1008.9 |
| 20260507111835 | 67 | 9 | 0.0 | 2.0 | 0.03 | 0.68 | 0.63 | 94 | 1009.0 |
| 20260507111509 | 67 | 9 | 0.0 | 0.0 | 0.00 | 0.00 | 0.63 | 95 | 1008.9 |
| 20260507111331 | 67 | 9 | 0.0 | 2.0 | 0.03 | 0.68 | 0.63 | 94 | 1009.2 |
| 20260507110831 | 67 | 57 | 1.0 | 2.0 | 0.03 | 0.68 | 0.63 | 94 | 1009.2 |
| 20260507110403 | 67 | 336 | 0.0 | 1.0 | 0.03 | 0.68 | 0.63 | 94 | 1009.0 |
| 20260507110010 | 67 | 336 | 0.0 | 0.0 | 0.00 | 0.00 | 0.63 | 94 | 1008.7 |
| 20260507105840 | 67 | 336 | 0.0 | 2.0 | 0.04 | 0.68 | 0.63 | 94 | 1008.9 |
| 20260507105342 | 67 | 336 | 0.0 | 2.0 | 0.03 | 0.67 | 0.62 | 94 | 1008.8 |
| 20260507104849 | 67 | 57 | 1.0 | 1.0 | 0.03 | 0.67 | 0.62 | 94 | 1008.8 |
| 20260507104539 | 67 | 59 | 0.0 | 0.0 | 0.00 | 0.00 | 0.62 | 94 | 1008.5 |
| 20260507104330 | 67 | 58 | 0.0 | 2.0 | 0.04 | 0.67 | 0.62 | 94 | 1008.8 |
| 20260507103900 | 67 | 322 | 0.0 | 2.0 | 0.03 | 0.66 | 0.61 | 94 | 1008.8 |
| 20260507103341 | 67 | 349 | 0.0 | 2.0 | 0.03 | 0.66 | 0.61 | 94 | 1008.8 |
| 20260507103013 | 67 | 355 | 0.0 | 0.0 | 0.00 | 0.00 | 0.61 | 94 | 1008.5 |
| 20260507102842 | 67 | 350 | 0.0 | 3.0 | 0.04 | 0.66 | 0.61 | 94 | 1008.7 |
| 20260507102342 | 67 | 261 | 0.0 | 3.0 | 0.04 | 0.66 | 0.61 | 94 | 1008.6 |
| 20260507101840 | 67 | 22 | 0.0 | 1.0 | 0.04 | 0.65 | 0.60 | 94 | 1008.7 |
| 20260507101506 | 67 | 22 | 0.0 | 0.0 | 0.00 | 0.00 | 0.60 | 94 | 1008.5 |
| 20260507101338 | 67 | 22 | 0.0 | 2.0 | 0.05 | 0.65 | 0.60 | 94 | 1008.9 |
| 20260507100837 | 67 | 30 | 1.0 | 2.0 | 0.05 | 0.65 | 0.60 | 94 | 1008.8 |
| 20260507100332 | 67 | 346 | 0.0 | 3.0 | 0.06 | 0.65 | 0.60 | 94 | 1008.8 |
| 20260507100035 | 67 | 346 | 0.0 | 0.0 | 0.00 | 0.00 | 0.60 | 94 | 1008.4 |
| 20260507095834 | 67 | 346 | 0.0 | 4.0 | 0.06 | 0.64 | 0.59 | 94 | 1008.7 |
| 20260507095335 | 67 | 14 | 0.0 | 2.0 | 0.07 | 0.65 | 0.59 | 94 | 1008.6 |
| 20260507094838 | 67 | 13 | 1.0 | 2.0 | 0.07 | 0.65 | 0.59 | 94 | 1008.7 |
| 20260507094518 | 67 | 5 | 1.0 | 0.0 | 0.00 | 0.00 | 0.59 | 94 | 1008.4 |
| 20260507094341 | 67 | 44 | 0.0 | 2.0 | 0.07 | 0.64 | 0.58 | 94 | 1008.7 |
| 20260507093843 | 67 | 13 | 0.0 | 2.0 | 0.08 | 0.64 | 0.58 | 94 | 1008.7 |
| 20260507093344 | 67 | 13 | 0.0 | 2.0 | 0.09 | 0.64 | 0.58 | 94 | 1008.5 |
| 20260507093007 | 67 | 13 | 0.0 | 0.0 | 0.00 | 0.00 | 0.56 | 94 | 1008.2 |
| 20260507092845 | 67 | 339 | 0.0 | 2.0 | 0.08 | 0.63 | 0.57 | 94 | 1008.5 |
| 20260507092346 | 67 | 46 | 0.0 | 2.0 | 0.09 | 0.63 | 0.57 | 94 | 1008.5 |
| 20260507091847 | 67 | 48 | 0.0 | 2.0 | 0.08 | 0.62 | 0.56 | 94 | 1008.7 |
| 20260507091552 | 67 | 48 | 0.0 | 0.0 | 0.00 | 0.00 | 0.56 | 94 | 1008.5 |
| 20260507091346 | 67 | 32 | 0.0 | 2.0 | 0.08 | 0.61 | 0.55 | 94 | 1008.8 |
| 20260507090841 | 67 | 41 | 1.0 | 2.0 | 0.09 | 0.61 | 0.55 | 94 | 1008.8 |
| 20260507090333 | 67 | 290 | 1.0 | 2.0 | 0.08 | 0.60 | 0.54 | 94 | 1008.7 |
| 20260507090019 | 66 | 25 | 0.0 | 0.0 | 0.00 | 0.00 | 0.54 | 94 | 1008.3 |
| 20260507085834 | 67 | 26 | 0.0 | 3.0 | 0.08 | 0.59 | 0.53 | 94 | 1008.7 |
| 20260507085336 | 67 | 26 | 2.0 | 3.0 | 0.09 | 0.59 | 0.53 | 94 | 1008.8 |
| 20260507084836 | 67 | 342 | 0.0 | 2.0 | 0.08 | 0.58 | 0.52 | 94 | 1009.0 |
| 20260507084510 | 67 | 327 | 0.0 | 0.0 | 0.00 | 0.00 | 0.51 | 94 | 1008.8 |
| 20260507084338 | 67 | 322 | 1.0 | 2.0 | 0.08 | 0.57 | 0.51 | 94 | 1009.1 |
| 20260507083844 | 67 | 342 | 0.0 | 2.0 | 0.07 | 0.56 | 0.50 | 94 | 1008.8 |
| 20260507083344 | 67 | 343 | 0.0 | 2.0 | 0.07 | 0.55 | 0.49 | 94 | 1009.1 |
| 20260507083005 | 66 | 342 | 0.0 | 0.0 | 0.00 | 0.00 | 0.49 | 94 | 1008.9 |
| 20260507082844 | 67 | 271 | 0.0 | 1.0 | 0.08 | 0.55 | 0.49 | 94 | 1009.3 |
| 20260507082343 | 67 | 271 | 0.0 | 2.0 | 0.07 | 0.54 | 0.48 | 94 | 1009.4 |
| 20260507081845 | 67 | 271 | 0.0 | 2.0 | 0.08 | 0.54 | 0.48 | 94 | 1009.5 |
| 20260507081554 | 66 | 309 | 0.0 | 0.0 | 0.00 | 0.00 | 0.47 | 94 | 1009.3 |
| 20260507081408 | 67 | 349 | 0.0 | 2.0 | 0.08 | 0.53 | 0.47 | 94 | 1009.4 |
| 20260507080840 | 67 | 350 | 1.0 | 3.0 | 0.07 | 0.52 | 0.46 | 94 | 1009.2 |
| 20260507080333 | 67 | 259 | 1.0 | 3.0 | 0.07 | 0.52 | 0.46 | 94 | 1009.3 |
| 20260507080043 | 66 | 259 | 1.0 | 0.0 | 0.00 | 0.00 | 0.45 | 94 | 1008.7 |
| 20260507075831 | 67 | 61 | 1.0 | 3.0 | 0.06 | 0.51 | 0.45 | 94 | 1008.2 |
| 20260507075331 | 67 | 61 | 0.0 | 2.0 | 0.06 | 0.51 | 0.45 | 94 | 1009.0 |
| 20260507074858 | 67 | 61 | 1.0 | 2.0 | 0.05 | 0.50 | 0.44 | 94 | 1009.3 |
| 20260507074513 | 66 | 61 | 0.0 | 0.0 | 0.00 | 0.00 | 0.44 | 94 | 1009.2 |
| 20260507074338 | 67 | 61 | 0.0 | 1.0 | 0.04 | 0.49 | 0.43 | 94 | 1009.7 |
| 20260507073838 | 67 | 61 | 0.0 | 0.0 | 0.04 | 0.49 | 0.43 | 94 | 1009.7 |
| 20260507073402 | 67 | 61 | 0.0 | 1.0 | 0.03 | 0.48 | 0.42 | 94 | 1009.8 |
| 20260507073048 | 66 | 61 | 0.0 | 0.0 | 0.00 | 0.00 | 0.42 | 93 | 1009.7 |
| 20260507072843 | 67 | 61 | 0.0 | 1.0 | 0.02 | 0.47 | 0.41 | 94 | 1009.7 |
| 20260507072342 | 67 | 61 | 0.0 | 1.0 | 0.02 | 0.47 | 0.41 | 94 | 1009.5 |
| 20260507071843 | 67 | 61 | 0.0 | 1.0 | 0.01 | 0.46 | 0.40 | 94 | 1009.4 |
| 20260507071534 | 66 | 61 | 0.0 | 0.0 | 0.00 | 0.00 | 0.40 | 93 | 1009.2 |
| 20260507071344 | 67 | 61 | 0.0 | 1.0 | 0.00 | 0.45 | 0.39 | 93 | 1009.6 |
| 20260507070842 | 67 | 61 | 0.0 | 1.0 | 0.00 | 0.45 | 0.39 | 93 | 1009.3 |
| 20260507070355 | 67 | 61 | 0.0 | 1.0 | 0.00 | 0.45 | 0.39 | 93 | 1009.8 |
| 20260507070044 | 66 | 61 | 0.0 | 0.0 | 0.00 | 0.00 | 0.39 | 93 | 1009.8 |
| 20260507065901 | 67 | 61 | 0.0 | 0.0 | 0.00 | 0.45 | 0.39 | 93 | 1010.1 |
| 20260507065340 | 67 | 61 | 0.0 | 0.0 | 0.00 | 0.45 | 0.39 | 93 | 1010.1 |
| 20260507064840 | 67 | 61 | 0.0 | 0.0 | 0.00 | 0.45 | 0.39 | 93 | 1009.9 |
| 20260507064505 | 66 | 61 | 0.0 | 0.0 | 0.00 | 0.00 | 0.39 | 93 | 1009.6 |
| 20260507064337 | 67 | 61 | 0.0 | 0.0 | 0.00 | 0.45 | 0.39 | 93 | 1009.9 |
| 20260507063838 | 67 | 61 | 0.0 | 0.0 | 0.01 | 0.45 | 0.39 | 93 | 1010.2 |
| 20260507063338 | 67 | 61 | 0.0 | 0.0 | 0.03 | 0.45 | 0.39 | 93 | 1010.2 |
| 20260507063052 | 66 | 61 | 0.0 | 0.0 | 0.00 | 0.00 | 0.39 | 93 | 1010.0 |
| 20260507062906 | 67 | 61 | 0.0 | 0.0 | 0.05 | 0.45 | 0.39 | 93 | 1010.4 |
| 20260507062344 | 67 | 61 | 0.0 | 0.0 | 0.07 | 0.45 | 0.39 | 93 | 1010.4 |
| 20260507061846 | 67 | 61 | 0.0 | 0.0 | 0.09 | 0.45 | 0.39 | 93 | 1010.6 |
| 20260507061523 | 67 | 61 | 0.0 | 0.0 | 0.00 | 0.00 | 0.39 | 93 | 1010.4 |
| 20260507061344 | 67 | 61 | 0.0 | 0.0 | 0.13 | 0.45 | 0.39 | 93 | 1010.8 |
| 20260507060843 | 67 | 61 | 0.0 | 1.0 | 0.16 | 0.45 | 0.39 | 93 | 1011.0 |
| 20260507060355 | 67 | 61 | 0.0 | 1.0 | 0.19 | 0.45 | 0.39 | 93 | 1010.8 |
| 20260507060050 | 67 | 61 | 0.0 | 0.0 | 0.00 | 0.00 | 0.39 | 93 | 1010.3 |
| 20260507055850 | 67 | 61 | 1.0 | 1.0 | 0.21 | 0.45 | 0.39 | 93 | 1010.6 |
| 20260507055351 | 67 | 61 | 0.0 | 0.0 | 0.24 | 0.45 | 0.39 | 93 | 1010.3 |
| 20260507054916 | 67 | 61 | 0.0 | 1.0 | 0.27 | 0.45 | 0.39 | 93 | 1010.6 |
| 20260507054548 | 67 | 61 | 0.0 | 0.0 | 0.00 | 0.00 | 0.39 | 92 | 1010.3 |
| 20260507054353 | 67 | 61 | 0.0 | 1.0 | 0.31 | 0.45 | 0.39 | 92 | 1010.5 |
| 20260507053855 | 68 | 61 | 0.0 | 2.0 | 0.32 | 0.44 | 0.38 | 92 | 1010.3 |
| 20260507053335 | 68 | 61 | 1.0 | 2.0 | 0.33 | 0.42 | 0.36 | 92 | 1009.9 |
| 20260507053019 | 67 | 61 | 0.0 | 0.0 | 0.00 | 0.00 | 0.35 | 92 | 1009.4 |
| 20260507052903 | 68 | 61 | 0.0 | 1.0 | 0.34 | 0.41 | 0.35 | 92 | 1009.9 |
| 20260507052341 | 68 | 61 | 0.0 | 1.0 | 0.32 | 0.38 | 0.32 | 92 | 1010.2 |
| 20260507051841 | 68 | 61 | 0.0 | 3.0 | 0.30 | 0.36 | 0.30 | 92 | 1010.3 |
| 20260507051543 | 68 | 61 | 1.0 | 0.0 | 0.00 | 0.00 | 0.28 | 92 | 1010.0 |
| 20260507051409 | 68 | 61 | 0.0 | 6.0 | 0.27 | 0.33 | 0.27 | 92 | 1009.8 |
| 20260507050830 | 69 | 51 | 2.0 | 6.0 | 0.23 | 0.29 | 0.23 | 91 | 1012.2 |
| 20260507050407 | 69 | 329 | 1.0 | 3.0 | 0.20 | 0.26 | 0.20 | 91 | 1012.5 |
| 20260507050029 | 68 | 340 | 0.0 | 0.0 | 0.00 | 0.00 | 0.19 | 91 | 1011.7 |
| 20260507045848 | 69 | 9 | 1.0 | 3.0 | 0.18 | 0.24 | 0.18 | 91 | 1012.0 |
| 20260507045349 | 69 | 109 | 0.0 | 3.0 | 0.15 | 0.21 | 0.15 | 91 | 1011.8 |
| 20260507044849 | 69 | 250 | 1.0 | 3.0 | 0.12 | 0.18 | 0.12 | 90 | 1012.0 |
| 20260507044513 | 69 | 342 | 1.0 | 0.0 | 0.00 | 0.00 | 0.10 | 90 | 1011.8 |
| 20260507044349 | 70 | 44 | 1.0 | 2.0 | 0.09 | 0.15 | 0.09 | 90 | 1012.2 |
| 20260507043918 | 70 | 304 | 0.0 | 2.0 | 0.06 | 0.12 | 0.06 | 89 | 1012.2 |
| 20260507043358 | 70 | 272 | 1.0 | 2.0 | 0.03 | 0.09 | 0.03 | 89 | 1012.1 |
| 20260507043019 | 69 | 273 | 0.0 | 0.0 | 0.00 | 0.00 | 0.02 | 89 | 1011.7 |
| 20260507042835 | 70 | 273 | 0.0 | 2.0 | 0.01 | 0.07 | 0.01 | 88 | 1011.9 |
| 20260507042335 | 70 | 273 | 1.0 | 2.0 | 0.00 | 0.06 | 0.00 | 88 | 1011.6 |
| 20260507041837 | 70 | 273 | 0.0 | 2.0 | 0.00 | 0.06 | 0.00 | 87 | 1011.4 |
| 20260507041507 | 70 | 273 | 1.0 | 0.0 | 0.00 | 0.00 | 0.00 | 87 | 1011.1 |
| 20260507041339 | 70 | 272 | 1.0 | 2.0 | 0.00 | 0.06 | 0.00 | 87 | 1011.2 |
| 20260507040836 | 70 | 295 | 0.0 | 3.0 | 0.00 | 0.06 | 0.00 | 87 | 1011.2 |
| 20260507040417 | 70 | 17 | 0.0 | 4.0 | 0.00 | 0.06 | 0.00 | 87 | 1011.4 |
| 20260507040011 | 70 | 335 | 1.0 | 0.0 | 0.00 | 0.00 | 0.06 | 86 | 1011.1 |
| 20260507035856 | 71 | 304 | 1.0 | 4.0 | 0.00 | 0.06 | 0.06 | 86 | 1011.3 |